User: anonymous   Login
Location: Eastlake (historical)
(39.0077°N, 122.6678°W)
Time: 08:30:20
(UTC+00:00)
Language:

PATHFINDER 1 - Orbit

View from above orbital plane
View from above orbital plane
View from above satellite
View from above satellite

Ground track
Ground track

The orbit data is extracted from the following two-line orbital elements,

1 41787U 16059E   21169.58137101  .00000111  00000-0  30177-4 0  9998
2 41787  97.9632 221.5426 0029226 235.2829 124.5621 14.63816829252502
Epoch (UTC): 18 June 2021 13:57:10
Eccentricity: 0.0029226
inclination: 97.9632°
perigee height: 660 km
apogee height: 701 km
right ascension of ascending node: 221.5426°
argument of perigee: 235.2829°
revolutions per day: 14.63816829
mean anomaly at epoch: 124.5621°
orbit number at epoch: 25250

The dashed part of the orbit path shows where the satellite is in the earth's shadow,  

DLR